Whiting Field Naval Air Station South Airport
KNDZ : now visible

Airfield :











YOU CAN JOIN US ON...

 
LOGIN :

Register | Disclaimer

   EN    FR    IT 

 









Legend :    VFR   Marginal VFR   IFR   Intensive IFR   Very Intensive IFR
Visi :
Ceiling :
>= 8 km
>= 3000ft
5 to 8 km
1000 to 3000 ft
1500m to 5 km
500 to 1000 ft
800 to 1500m
200 to 500 ft
< 800m
< 200 ft
Symbols :   Thunderstorms  Fog  Heavy snow  Heavy precipitations  Wind > 20 kt






- Airport Elevation : 177 ft


KNDZ - Whiting Field Naval Air Station South

CURRENT METAR :
  • 220856Z AUTO 21005KT 10SM SCT004 BKN055 OVC070 22/22 A2993 RMK AO2 RAE16B35E48 SLP120 6//// T02220222 55028 PNO $

EXPIRED METARs :
  • 220830Z AUTO 19005KT 10SM FEW002 BKN055 OVC110 22/22 A2993 RMK AO2 RAE16 T02220222 PNO $
  • 220722Z AUTO 16005KT 5SM RA BR FEW038 BKN075 OVC095 22/22 A2994 RMK AO2 T02220222 PNO $
  • 220713Z AUTO 18005KT 2SM RA BR SCT038 SCT070 OVC090 22/22 A2994 RMK AO2 PRESFR T02220222 PNO $

TAF N/A
KZJX FIR / North America



MET'MAP, your aeronautical weather chart ! - Copyright ORBIFLY December 2007 - Disclaimer

ORBIFLY MET'MAP TEAM :

Programming & Development : Alexandra Zaïnal
Concept & original design : Baudouin d'Aumeries
Assistance for programming : Marc-Olivier Méhu
Technical & hardware support : Manuel Goepfert

Contact : metmap@orbifly.com




SOURCES & CREDITS :

   NOAA       Earth
Advisory